CZ-6A DEB, 54480

Orbit data source: Space-Track

CZ-6A DEB, 54480 is space debris in SSO originally from a launch on Fri, 11 Nov 2022 UTC launched from the Taiyaun Space Center, China (TSC). Debris objects in space refer to the collection of defunct objects orbiting the Earth. Examples of debris include non-operational satellites, rocket bodies, and fragments generated from explosions, collisions, or faulty payload assembly.

Loading next visibility...
Identifier
54480, 2022-151HG
Orbit
SSO
Country
Flag of CNCN / PRC
Related business
Manufacturer
SAST
Mission
Spacecraft
Bus & Motor
Unknown
Mass
Unknown
Launch date (UTC)
2022-11-11 (4 years ago)
Launch vehicle
Unknown
Launch site
Taiyaun Space Center, China (TSC)
Object type
Payload
Rocket body
Debris
Shape & HBR
Unknown shape, 0.3 m
Radar Cross Section
Medium (>0.1 m² and <1 m²)

Expand to show TLE details & history
Last TLE update: 8 hours ago

TLE from 8 hours ago
0 CZ-6A DEB
1 54480U 22151HG  26236.32546939  .00000260  00000-0  92551-4 0  9996
2 54480  98.6077 272.0601 0129481 170.1437 190.2335 14.37972622198101
Epoch: 2026-08-24T07:48Z
TLE epoch observation values (Epoch: 2026-08-24T07:48:40.555Z)
Latitude
-0.00008°
Longitude
-177.71766°
Altitude
859.225 km
Speed
7.375 km/s
True Right ascension
18h 08m 14s
True Declination
0° 00' 00"
Sunlit
Object was in partial shadow at epoch
Visualization orbit readout
Latitude
Unknown
Longitude
Unknown
Altitude
Unknown
Speed
Unknown
Apparent Right ascension
Unknown
Apparent Declination
Unknown
Sunlit
N/A
Visualization observer readout
Local Sidereal Time
07:26:00
Azimuth
Unknown
Elevation
Unknown
Doppler factor
Unknown
Orbital elements
Apogee altitude
854.789 km
Perigee altitude
669.878 km
Semi-major axis
7,140.471 km
Eccentricity
0.01295
Inclination
98.6077°
RAAN
272.0601°
Arg. of periapsis
170.1437°
True anomaly
189.97403°
Mean anomaly
190.2335°
Eccentric anomaly
190.10336°
Mean motion
3.5971 °/min
Orbital period
100.08 mins
BSTAR
0.000092551
Loading maneuver chart data...
Computing Atmospheric mass density...
Loading historical data...
Loading historical data...
Loading historical data...
Loading historical data...
Loading historical data...
Loading historical data...
Loading historical data...

Documentation

Showing up to 5 results
|